Amarillo, TX

7:43 AM CDT on July 17, 2019 (GMT -0500)
Amarillo International

Weather History for KAMA - May, 2019

Change the Weather History Date:

Sunday, May 12, 2019

  Actual Average Record
Temperature  
Mean Temperature 59 °F 64 °F  
Max Temperature 75 °F 78 °F 99 °F (1962)
Min Temperature 42 °F 51 °F 35 °F (1946)
Degree Days  
Heating Degree Days 6 3  
Month to date heating degree days 89 49  
Since 1 July heating degree days 4072 4137  
Cooling Degree Days 0 3  
Month to date cooling degree days 7 23  
Year to date cooling degree days 23 44  
Growing Degree Days 8 (Base 50)    
Moisture  
Dew Point 42 °F    
Average Humidity 61    
Maximum Humidity 92    
Minimum Humidity 29    
Precipitation  
Precipitation 0.00 in 0.07 in 1.01 in (1927)
Month to date precipitation 1.35 0.67  
Year to date precipitation 5.44 4.74  
Snow  
Snow 0.00 in 0.00 in T in (2005)
Month to date snowfall 0.0 0.2  
Since 1 July snowfall 8.1 17.8  
Snow Depth 0.00 in    
Sea Level Pressure  
Sea Level Pressure 29.87 in    
Wind  
Wind Speed 7 mph (SE)    
Max Wind Speed 16 mph    
Max Gust Speed 21 mph    
Visibility 10 miles    
Events      
T = Trace of Precipitation, MM = Missing Value Source: NWS Daily Summary

Daily Weather History Graph

Daily Weather History Graph

Search for Another Location

Airport or City:

Astronomy

May. 12, 2019 Rise Set
Actual Time 6:45 AM CDT 8:41 PM CDT
Civil Twilight 6:17 AM CDT 9:09 PM CDT
Nautical Twilight 5:43 AM CDT 9:43 PM CDT
Astronomical Twilight 5:07 AM CDT 10:19 PM CDT
Moon 2:05 PM CDT (5/12) 3:06 AM CDT (5/12)
Length of Visible Light 14h 52m
Length of Day
13h 56m
First Quarter, 58% of the Moon is Illuminated
May 12
First Quarter
May 18
Full
May 26
Last Quarter
Jun 3
New
Jun 10
First Quarter

Hourly Weather History & Observations

Time (CDT) Temp. Windchill Dew Point Humidity Pressure Visibility Wind Dir Wind Speed Gust Speed Precip Events Conditions
12:53 AM 46.9 °F - 43.0 °F 86% 29.88 in 10.0 mi South 6.9 mph - N/A   Clear
1:53 AM 48.0 °F - 44.1 °F 86% 29.88 in 10.0 mi SW 6.9 mph - N/A   Clear
2:53 AM 44.1 °F 40.1 °F 42.1 °F 93% 29.88 in 10.0 mi SW 6.9 mph - N/A   Clear
3:53 AM 48.0 °F - 44.1 °F 86% 29.88 in 10.0 mi North 9.2 mph - N/A   Clear
4:53 AM 45.0 °F 39.3 °F 42.1 °F 90% 29.90 in 10.0 mi NE 11.5 mph - N/A   Clear
5:53 AM 44.1 °F 40.1 °F 39.9 °F 85% 29.90 in 10.0 mi NE 6.9 mph - N/A   Clear
6:53 AM 42.1 °F 38.4 °F 37.9 °F 85% 29.92 in 10.0 mi NE 5.8 mph - N/A   Clear
7:53 AM 48.0 °F - 41.0 °F 77% 29.93 in 10.0 mi ENE 3.5 mph - N/A   Clear
8:53 AM 53.1 °F - 39.9 °F 61% 29.94 in 10.0 mi East 8.1 mph - N/A   Clear
9:53 AM 57.0 °F - 41.0 °F 55% 29.93 in 10.0 mi ENE 6.9 mph - N/A   Clear
10:53 AM 60.1 °F - 42.1 °F 51% 29.92 in 10.0 mi SSE 10.4 mph - N/A   Clear
11:53 AM 62.1 °F - 44.1 °F 52% 29.91 in 10.0 mi SW 5.8 mph - N/A   Clear
12:53 PM 64.9 °F - 46.0 °F 50% 29.90 in 10.0 mi Variable 4.6 mph 16.1 mph N/A   Clear
1:53 PM 68.0 °F - 48.0 °F 49% 29.87 in 10.0 mi WSW 6.9 mph - N/A   Clear
2:53 PM 72.0 °F - 48.9 °F 44% 29.85 in 10.0 mi West 8.1 mph 18.4 mph N/A   Clear
3:53 PM 72.0 °F - 39.0 °F 30% 29.82 in 10.0 mi North - - N/A   Partly Cloudy
4:53 PM 75.0 °F - 41.0 °F 29% 29.80 in 10.0 mi NW 6.9 mph - N/A   Clear
5:53 PM 73.9 °F - 39.0 °F 28% 29.80 in 10.0 mi Variable 5.8 mph - N/A   Partly Cloudy
6:53 PM 73.0 °F - 39.9 °F 30% 29.80 in 10.0 mi Variable 4.6 mph - N/A   Partly Cloudy
7:53 PM 72.0 °F - 39.0 °F 30% 29.79 in 10.0 mi NW 3.5 mph - N/A   Clear
8:53 PM 64.9 °F - 43.0 °F 45% 29.81 in 10.0 mi ESE 4.6 mph - N/A   Clear
9:53 PM 57.9 °F - 43.0 °F 58% 29.84 in 10.0 mi SE 8.1 mph - N/A   Clear
10:53 PM 57.0 °F - 43.0 °F 59% 29.86 in 10.0 mi SSE 6.9 mph - N/A   Clear
11:53 PM 57.9 °F - 42.1 °F 56% 29.86 in 10.0 mi SSE 10.4 mph - N/A   Clear